Flag for United Kingdom Weather past 2 weeks in Chichester, England, United Kingdom

Now
54 °F

Cool.


Feels Like: 50 °F
Forecast: 49 / 58 °F
Wind: 16 mph from West

Location: Thorney Island

Current Time: May 28, 2015 at 5:23:30 AM

Latest Report: May 28, 2015 at 3:00 AM


Visibility: 13 mi

Pressure: 30.00 "Hg

Humidity: 84%

Dew point: 50 °F

Location of ChichesterLocation

Historic Weather in Chichester — Graph

°F

Chichester temperature yesterday

Maximum temperature yesterday: 59 °F (at 1:00 PM)
Minimum temperature yesterday: 45 °F (at 5:00 AM)
Average temperature yesterday: 54 °F

Past Weeks' High & Low Weather Summary

 TemperatureHumidityPressure
High67 °F (May 23, 12:00 PM)97% (May 21, 5:00 AM)30.38 "Hg (May 21, 5:00 AM)
Low39 °F (May 13, 6:00 AM)44% (May 16, 4:00 PM)29.66 "Hg (May 19, 5:00 AM)
Average54 °F77%30.12 "Hg
* Reported May 13 3:00 AM — May 28 3:00 AM, Chichester, Weather by CustomWeather, © 2015

Note: Actual official high and low records may vary slightly from our data, if they occured in-between our weather recording intervals... More about our weather records

Advertising

Chichester weather history for previous 24 hours

 ConditionsComfort  
Time TempWeatherWind HumidityBarometerVisibility
3:00 AM
Thu, May 28
54 °FCool.16 mph84%30.00 "Hg12 mi
2:00 AM55 °FCool.16 mph86%30.01 "Hg11 mi
1:00 AM55 °FCool.15 mph86%30.02 "Hg11 mi
12:00 AM56 °FCool.15 mph86%30.03 "Hg14 mi
11:00 PM
Wed, May 27
56 °FCool.15 mph87%30.05 "Hg14 mi
9:00 PM55 °FCool.15 mph84%30.08 "Hg16 mi
8:00 PM56 °FCool.15 mph74%30.10 "Hg22 mi
7:00 PM58 °FCool.15 mph70%30.11 "Hg25 mi
6:00 PM59 °FCool.14 mph74%30.14 "Hg16 mi
5:00 PM59 °FCool.15 mph76%30.17 "Hg15 mi
4:00 PM59 °FCool.16 mph69%30.19 "Hg19 mi
3:00 PM59 °FCool.17 mph68%30.22 "Hg12 mi
2:00 PM59 °FCool.14 mph72%30.23 "Hg18 mi
1:00 PM59 °FCool.15 mph73%30.25 "Hg12 mi
12:00 PM59 °FCool.8 mph64%30.27 "Hg18 mi
11:00 AM59 °FCool.8 mph65%30.28 "Hg25 mi
10:00 AM58 °FRefreshingly cool.3 mph57%30.30 "Hg25 mi
9:00 AM55 °FCool.9 mph61%30.31 "Hg19 mi
8:00 AM53 °FCool.3 mph69%30.31 "Hg19 mi
7:00 AM49 °FCool.2 mph79%30.31 "Hg19 mi
6:00 AM45 °FCool.3 mph87%30.31 "Hg16 mi
5:00 AM45 °FCool.2 mph86%30.31 "Hg22 mi
Weather by CustomWeather, © 2015

See weather overviewHow to use our weather pages